Location: Huppendorf
(49.9333°N, 11.1500°E)
Time: 09:07:20
(UTC+00:00)

STARLINK-1037 - Pass Details

Date: 27 February 2020
Orbit: 547 x 551 km, 53.0° (Epoch: 27 March)

Event Time Altitude Azimuth Distance (km) Brightness Sun altitude
Rises 17:17:42 0° 239° (WSW) 2,705 8.6 -4.7°
Reaches altitude 10° 17:19:56 10° 238° (WSW) 1,815 7.5 -5.1°
Maximum altitude 17:24:02 73° 153° (SSE) 576 3.7 -5.7°
Drops below altitude 10° 17:28:10 10° 70° (ENE) 1,824 5.6 -6.4°
Enters shadow 17:28:43 - 69° (ENE) 2,042 5.9 -6.5°
